Location: Hall+in+Tirol
(47.2830°N, 11.5170°E)
Time: 03:00:42
(UTC+02:00)

Gurwin Techsat 1B - Visible Passes

Search period start: 25 August 2016 00:00
Search period end: 04 September 2016 00:00
Orbit: 811 x 815 km, 98.6° (Epoch: 24 August)

Date Brightness Start Highest point End Pass type
(mag) Time Alt. Az. Time Alt. Az. Time Alt. Az.
25 Aug 9.2 03:00:18 10° NNE 03:05:26 46° E 03:06:13 43° SE visible
25 Aug 9.7 04:40:40 10° N 04:45:10 29° WNW 04:47:25 21° W visible
26 Aug 9.9 02:37:49 10° NNE 02:42:29 30° E 02:43:04 29° ESE visible
26 Aug 9.2 04:17:34 10° N 04:22:34 42° WNW 04:24:17 32° WSW visible
27 Aug 10.5 02:15:39 10° NE 02:19:28 20° E 02:19:55 19° E visible
27 Aug 8.6 03:54:36 10° N 03:59:53 64° WNW 04:01:07 49° SW visible
27 Aug 10.6 05:37:04 10° NNW 05:38:50 12° NW 05:40:36 10° WNW visible
28 Aug 11.0 01:54:12 10° ENE 01:56:22 12° E 01:56:45 12° E visible
28 Aug 8.5 03:31:46 10° NNE 03:37:08 84° ESE 03:37:58 64° S visible
28 Aug 10.3 05:13:04 10° NNW 05:16:24 17° WNW 05:19:10 12° W visible
29 Aug 9.0 03:09:03 10° NNE 03:14:17 55° E 03:14:48 53° ESE visible
29 Aug 9.9 04:49:40 10° N 04:53:54 25° WNW 04:56:00 19° W visible
30 Aug 9.7 02:46:30 10° NNE 02:51:23 35° E 02:51:39 35° ESE visible
30 Aug 9.4 04:26:30 10° N 04:31:20 36° WNW 04:32:51 30° W visible
31 Aug 10.3 02:24:11 10° NE 02:28:24 23° E 02:28:29 23° E visible
31 Aug 8.8 04:03:29 10° N 04:08:41 54° WNW 04:09:41 47° WSW visible
01 Sep 10.9 02:02:20 10° NE 02:05:19 15° E 02:05:19 15° E visible
01 Sep 8.4 03:40:36 10° NNE 03:45:57 83° WNW 03:46:32 71° SW visible
01 Sep 10.5 05:22:14 10° NNW 05:25:06 15° NW 05:27:44 11° W visible
02 Sep 8.7 03:17:50 10° NNE 03:23:09 65° ESE 03:23:22 65° ESE visible
02 Sep 10.1 04:58:41 10° NNW 05:02:38 21° WNW 05:04:34 18° W visible
03 Sep 9.5 02:55:13 10° NNE 03:00:12 42° E 03:00:12 42° E visible
03 Sep 9.6 04:35:27 10° N 04:40:05 31° WNW 04:41:24 27° W visible
